METEOR 2-20 DEB

Satellite information

Favourite Embed

Satellite Type and Status

DEBRISIN ORBIT

Key statistics

Satellite METEOR 2-20 DEB at a glance.

Uptime

12646

Days in orbit

Revolutions

≈ 14.0

Per day

Orbit

LEO

Low Earth Orbit

Inclination

82.5

Latest

Satellite identification and parameters

Extended collection of information and parameters for METEOR 2-20 DEB.

Object identification

Identified? True

Debris? True

Object name: METEOR 2-20 DEB

International designator: 1990-086F

Object number (NORAD): 45524

Object ID (CCSDS): 45524

Country: COMMONWEALTH OF INDEPENDENT STATES (CIS)

Current information (Y/N): Y

RCS size: SMALL

Orbital parameters

Period: 103.006 minutes

Inclination: 82.5213 deg

SMA: 7278.93 km

Apoapsis: 914.243 km

Periapsis: 887.347 km

RAAN: 133.2477 deg

Eccentricy: 0.0018475

Argument of periapsis: 295.8229 deg

Mean anomaly: 64.1033 deg

Mean motion: 13.97981649 rev/day

Mean motion (dot): 0.00002208 rev/day2

B* drag term: 0.0015446 1/REarth

Two-line elements (TLE)

Creation date: May 8, 2025, 10:46 p.m.

Reference frame: TEME

Reference center: EARTH

Epoch: May 8, 2025, 6:37 a.m. UTC

TLE line 0: 0 METEOR 2-20 DEB

TLE line 1: 1 45524U 90086F 25128.27610377 .00002208 00000-0 15446-2 0 9998

TLE line 2: 2 45524 82.5213 133.2477 0018475 295.8229 64.1033 13.97981649571391

Live tracking on map

Real-time ground track for satellite METEOR 2-20 DEB.

In-orbit conjunctions

A list of the most updated potential collisions computed for object METEOR 2-20 DEB.

Target Orbit TCA Probability of collision Miss distance Type
COSMOS 198 LEO 2024-09-25 10:51:25 0.0003585412 776.0 (m) PAYLOAD

Associated space launch

Second generation soviet meteorological satellite

METEOR 2-20 DEB was lifted into orbit during the mission ‘Tsiklon-3 | Meteor-2 20’, on board a Tsiklon-3 space rocket.

The launch took place on Sept. 28, 1990, 7:30 a.m. from 32/1.

For more information about the launch, click the button.

Launch to space Tsiklon-3 | Meteor-2 20
Tsiklon-3 | Meteor-2 20

Agency: N/A

Status: Launch Successful

Launch date: Sept. 28, 1990, 7:30 a.m. UTC

Rocket: Tsiklon-3

Launch pad: 32/1

Location: Plesetsk Cosmodrome, Russian Federation

...

Latest news about this satellite

There are no fresh news available about this satellite. Check back as we update our databases every day.


Newsletter sign-up

Weekly statistics, charts and insights to help you stay on top of the space industry.